2026-023F

Last updated on Sun Mar 08 2026 00:02:12 GMT+0000 (Coordinated Universal Time)

1 67679U 26023F 26066.61382073 .00017264 00000+0 72651-3 0 9991 2 67679 96.6323 142.2961 0022227 128.7157 231.6074 15.23196784 4527
UTC large
Height (km)
Speed (km/s)
/
Latitude / Longitude
Inclination (degrees)
Orbital Period (minutes)
Azimuth
Elevation
Range (km)
Doppler Factor

Next 0 passes for location: London (51.5072 / 0.1276)

Sorry there are no passes over London.